SCP
0 0 0 0 0 0 0 0 0 0 0 0 0 0 0 0 0 0 0 0 0 0 0 0 0 0 0 0 0 0 0 0 0 0 0 0 0 0 0 0 0 0 0
0 0 0 0 0 0 0 0 0 0 0 0 0 0 0 0 0 0 0 0 0 0 0 0 0 0 0 0 0 0 0 0 0 0 0 0 0 0 0 0 0 0 0
0 0 0 0 0 0 0 0 0 0 0 0 0 0 0 0 0 0 0 0 0 0 0 0 0 0 0 0 0 0 0 0 0 0 0 0 0 0 0 0 0 0 0
0 0 0 0 0 0 0 0 0 0 0 0 0 0 0 0 0 0 0 0 0 0 0 0 0 0 0 0 0 0 0 0 0 0 0 0 0 0 0 0 0 0 0
0 0 0 0 0 0 0 0 0 0 0 0 0 0 0 0 0 0 0 0 0 0 0 0 0 0 0 0 0 0 0 0 0 0 0 0 0 0 0 0 0 0 0
0 0 0 0 0 0 0 0 0 0 0 0 0 0 0 0 0 0 0 0 0 0 0 0 0 0 0 0 0 0 0 0 0 0 0 0 0 0 0 0 0 0 0
0 0 0 0 0 0 0 0 0 0 0 0 0 0 0 0 0 0 0 0 0 0 0 0 0 0 0 0 0 0 0 0 0 0 0 0 0 0 0 0 0 0 0
0 0 0 0 0 0 0 0 0 0 0 0 0 0 0 0 0 0 0 0 0 0 0 0 0 0 0 0 0 0 0 0 0 0 0 0 0 0 0 0 0 0 0
0 0 0 0 0 0 0 0 0 0 0 0 0 0 0 0 0 0 0 0 0 0 0 0 0 0 0 0 0 0 0 0 0 0 0 0 0 0 0 0 0 0 0
0 0 0 0 0 0 0 0 0 0 0 0 0 0 0 0 0 0 0 0 0 0 0 0 0 0 0 0 0 0 0 0 0 0 0 0 0 0 0 0 0 0 0
0 0 0 0 0 0 0 0 0 0 0 0 0 0 0 0 0 0 0 0 0 0 0 0 0 0 0 0 0 0 0 0 0 0 0 0 0 0 0 0 0 0 0
0 0 0 0 0 0 0 0 0 0 0 0 0 0 0 0 0 0 0 0 0 0 0 0 0 0 0 0 0 0 0 0 0 0 0 0 0 0 0 0 0 0 0
0 0 0 0 0 0 0 0 0 0 0 0 0 0 0 0 0 0 0 0 0 0 0 0 0 0 0 0 0 0 0 0 0 0 0 0 0 0 0 0 0 0 0
0 0 0 0 0 0 0 0 0 0 0 0 0 0 0 0 0 0 0 0 0 0 0 0 0 0 0 0 0 0 0 0 0 0 0 0 0 0 0 0 0 0 0
0 0 0 0 0 0 0 0 0 0 0 0 0 0 0 0 0 0 0 0 0 0 0 0 0 0 0 0 0 0 0 0 0 0 0 0 0 0 0 0 0 0 0
0 0 0 0 0 0 0 0 0 0 0 0 0 0 0 0 0 0 0 0 0 0 0 0 0 0 0 0 0 0 0 0 0 0 0 0 0 0 0 0 0 0 0
0 0 0 0 0 0 0 0 0 0 0 0 0 0 0 0 0 0 0 0 0 0 0 0 0 0 0 0 0 0 0 0 0 0 0 0 0 0 0 0 0 0 0
0 0 0 0 0 0 0 0 0 0 0 0 0 0 0 0 0 0 0 0 0 0 0 0 0 0 0 0 0 0 0 0 0 0 0 0 0 0 0 0 0 0 0
0 0 0 0 0 0 0 0 0 0 0 0 0 0 0 0 0 0 0 0 0 0 0 0 0 0 0 0 0 0 0 0 0 0 0 0 0 0 0 0 0 0 0
0 0 0 0 0 0 0 0 0 0 0 0 0 0 0 0 0 0 0 0 0 0 0 0 0 0 0 0 0 0 0 0 0 0 0 0 0 0 0 0 0 0 0
0 0 0 0 0 0 0 0 0 0 0 0 0 0 0 0 0 0 0 0 0 0 0 0 0 0 0 0 0 0 0 0 0 0 0 0 0 0 0 0 0 0 0
0 0 0 0 0 0 0 0 0 0 0 0 0 0 0 0 0 0 0 0 0 0 0 0 0 0 0 0 0 0 0 0 0 0 0 0 0 0 0 0 0 0 0
0 0 0 0 0 0 0 0 0 0 0 0 0 0 0 0 0 0 0 0 0 0 0 0 0 0 0 0 0 0 0 0 0 0 0 0 0 0 0 0 0 0 0
0 0 0 0 0 0 0 0 0 0 0 0 0 0 0 0 0 0 0 0 0 0 0 0 0 0 0 0 0 0 0 0 0 0 0 0 0 0 0 0 0 0 0
0 0 0 0 0 0 0 0 0 0 0 0 0 0 0 0 0 0 0 0 0 0 0 0 0 0 0 0 0 0 0 0 0 0 0 0 0 0 0 0 0 0 0
0 0 0 0 0 0 0 0 0 0 0 0 0 0 0 0 0 0 0 0 0 0 0 0 0 0 0 0 0 0 0 0 0 0 0 0 0 0 0 0 0 0 0
Wind_Speed
12 11 11 10 10 10 9 9 8 7 7 7 6 6 7 7 6 6 6 6 6 6 6 6 5 5 5 5 4 4 4 4 3 2 2 1 0 1 1 3 5 2 2
11 10 10 9 9 9 8 7 7 6 6 6 6 6 6 6 5 5 6 6 6 6 6 6 6 5 5 4 4 4 3 2 3 2 2 0 1 1 2 4 3 3 2
10 10 9 8 8 8 7 6 6 5 5 6 6 7 6 6 6 6 6 6 6 6 6 6 6 6 6 5 4 4 3 4 2 2 2 1 1 1 3 4 3 2 4
10 10 9 7 7 6 6 5 5 6 6 6 6 7 7 8 8 7 6 6 5 5 5 5 6 6 5 5 4 5 5 4 3 2 2 2 2 3 3 3 3 3 3
9 9 8 7 6 6 6 6 5 5 7 5 6 7 7 8 8 8 5 5 4 4 4 4 5 5 3 3 4 4 5 4 4 4 3 3 3 3 4 3 4 3 3
8 8 7 6 6 6 6 6 5 5 6 6 7 8 8 7 8 11 9 5 4 4 4 3 4 3 1 2 3 4 3 3 4 4 3 4 4 4 3 4 3 4 3
7 7 7 6 6 6 7 6 6 6 6 5 6 7 7 7 9 10 11 6 3 3 3 4 4 6 7 6 5 5 5 7 6 2 3 4 4 3 4 5 4 4 4
6 6 6 6 7 6 6 6 5 4 4 4 5 6 6 6 8 9 11 5 0 2 3 4 5 6 7 7 7 6 3 1 4 4 3 3 3 3 3 4 5 5 4
6 6 6 7 7 6 6 5 4 4 4 4 4 5 6 5 6 8 9 4 1 3 5 6 6 5 7 9 6 6 5 5 3 4 6 7 9 9 5 3 4 4 4
6 6 6 6 6 6 5 4 3 3 3 4 5 5 5 5 5 8 10 4 3 3 4 5 7 6 6 8 5 5 5 5 7 7 6 7 7 7 7 5 3 3 3
6 6 6 5 5 5 4 3 2 3 3 4 4 4 5 4 3 5 7 5 5 4 3 3 3 4 6 7 6 4 4 6 7 6 4 3 2 2 2 3 3 2 2
6 6 5 3 4 5 4 3 2 2 2 2 3 4 4 3 3 2 4 4 5 4 3 3 1 4 6 8 6 7 10 9 4 3 3 3 2 2 2 2 3 3 3
5 5 4 4 3 3 3 2 1 1 1 2 2 3 3 3 2 2 3 4 5 3 3 5 6 7 8 6 7 9 8 4 3 3 3 3 3 2 2 2 3 4 4
6 5 4 4 3 2 2 2 3 3 3 3 3 3 4 4 4 4 3 2 3 2 4 6 8 9 8 8 7 4 3 2 2 3 3 3 3 3 2 2 2 3 3
5 4 4 4 4 4 6 6 6 6 5 5 5 5 4 4 3 3 4 4 5 6 7 5 3 2 2 2 2 2 2 2 3 3 3 3 3 3 3 3 2 2 3
4 3 3 3 3 3 5 6 9 7 7 8 7 5 4 4 1 2 5 7 8 9 6 4 3 3 3 3 3 3 3 3 3 4 3 4 4 4 4 3 3 2 3
3 2 2 2 3 3 4 4 5 3 3 3 3 3 2 1 2 4 6 9 11 8 4 3 2 3 3 3 3 3 3 3 3 3 3 4 4 4 4 4 4 3 3
4 3 1 2 2 2 3 3 4 4 4 4 3 3 3 4 5 7 7 7 6 3 1 2 3 3 3 3 3 3 3 3 3 4 3 4 4 4 4 4 4 4 4
3 3 1 1 2 2 2 3 3 3 3 4 5 4 6 7 8 10 7 5 3 3 3 3 3 3 3 3 3 3 3 3 3 3 3 4 4 4 4 5 4 6 4
3 2 1 1 2 2 2 2 3 2 2 3 3 2 3 5 4 4 4 2 2 3 4 4 3 2 2 3 3 3 4 3 4 4 4 4 4 4 5 6 5 5 4
5 5 3 3 2 2 2 2 2 2 2 2 3 3 1 3 1 1 1 2 3 3 3 3 3 3 4 3 4 5 5 4 5 5 6 5 6 5 5 5 5 5 4
3 5 4 3 3 2 1 2 2 2 2 2 4 5 3 3 1 2 2 2 3 2 2 2 4 4 4 4 4 4 4 5 6 6 6 7 7 6 6 5 5 5 4
3 4 3 4 4 3 3 2 2 1 1 2 1 2 3 0 2 2 2 2 2 2 2 2 2 4 4 3 3 4 5 5 5 6 6 7 7 8 6 5 6 6 4
4 4 4 5 5 5 4 3 2 1 1 1 1 1 1 1 1 2 1 1 1 1 2 2 2 3 4 3 3 5 5 4 5 5 8 7 9 8 7 6 6 6 5
4 4 4 4 4 4 3 3 2 1 1 1 1 0 1 1 1 2 2 1 1 1 1 1 1 2 3 5 5 5 3 4 4 5 6 7 9 9 7 7 6 6 5
5 4 4 4 4 3 3 3 3 2 1 1 1 1 0 0 1 2 1 1 0 1 1 1 2 2 2 4 5 4 2 4 6 6 6 7 8 6 6 6 8 6 6
Wind_Direction
82 82 83 83 84 85 84 83 82 80 79 81 81 79 76 71 68 73 79 72 71 66 66 67 61 42 24 22 19 35 37 31 30 36 61 110 117 297 314 297 285 243 194
88 87 86 85 85 85 85 83 85 85 83 83 79 78 81 77 69 69 75 75 72 69 62 56 48 47 39 28 12 31 37 30 25 10 349 350 291 274 294 288 308 353 255
98 96 93 90 88 88 87 85 83 82 81 80 76 71 69 67 66 67 68 67 69 66 60 57 53 44 33 19 17 19 9 15 356 333 319 306 301 350 323 314 330 319 316
102 100 95 90 90 91 90 87 85 83 78 75 76 74 67 56 47 44 65 69 69 72 68 65 61 51 34 1 17 20 6 348 334 325 331 349 7 359 353 340 345 341 331
108 103 101 101 99 95 91 87 86 87 86 78 77 76 72 61 38 26 21 72 66 69 71 77 87 84 60 5 16 2 358 351 350 356 356 16 15 3 358 338 342 327 326
110 110 111 110 106 102 98 93 89 83 81 79 75 73 65 57 34 29 22 16 46 54 48 48 116 112 67 308 303 305 306 329 353 347 358 2 0 359 347 338 344 343 331
110 111 111 108 104 100 100 96 90 86 84 83 85 84 78 54 32 22 14 348 30 56 40 22 41 59 35 10 341 296 268 248 242 297 327 334 339 359 347 336 336 327 301
114 109 109 104 100 96 94 94 94 92 92 89 89 93 89 62 32 16 354 323 360 83 67 49 52 58 31 6 338 339 332 275 229 229 281 309 330 340 328 311 305 307 297
108 102 101 103 102 100 98 97 97 101 105 101 93 94 94 75 32 15 355 318 53 79 77 58 45 59 26 5 348 354 6 5 346 306 282 282 287 287 282 307 316 333 329
107 103 101 101 100 98 96 99 102 106 109 106 94 90 92 83 41 21 2 357 31 59 98 95 64 42 16 8 355 353 358 346 334 324 302 277 265 263 249 229 270 312 322
107 107 107 104 104 103 100 102 109 99 95 100 109 104 97 93 81 32 22 14 7 16 66 83 64 12 358 347 333 319 325 311 302 300 305 305 293 276 230 221 229 256 300
110 109 110 112 113 111 108 103 105 118 124 122 126 123 119 116 86 55 19 17 356 3 31 43 31 327 325 317 310 307 316 314 294 314 334 333 334 341 316 297 274 262 245
116 113 107 101 96 112 124 122 123 129 144 137 134 131 127 121 105 2 319 318 334 338 349 324 300 291 298 289 264 286 304 311 334 341 333 322 315 309 298 297 298 287 278
123 120 121 118 110 99 80 74 60 43 41 50 60 84 93 77 51 20 357 5 331 339 330 300 279 273 269 276 288 274 257 298 332 317 318 317 319 325 321 317 319 316 311
127 131 129 112 100 85 74 54 60 56 50 45 41 48 62 72 49 7 353 359 354 358 331 305 289 304 334 348 337 338 346 2 356 339 332 331 335 336 327 323 316 319 330
146 153 145 142 141 127 117 97 61 79 81 74 66 63 77 89 130 334 331 325 325 335 331 316 350 10 4 356 349 355 12 21 357 337 336 341 338 332 328 327 330 339 329
140 137 138 143 146 138 143 144 139 112 73 71 75 74 84 173 276 298 309 315 307 310 303 314 19 17 1 355 357 2 4 359 341 332 341 341 336 331 329 331 332 335 328
146 135 156 151 142 139 156 156 152 158 166 164 184 219 232 253 273 284 299 309 292 258 273 12 25 17 12 0 356 357 352 344 347 339 338 338 333 328 327 328 323 328 318
161 149 158 139 148 141 148 142 145 156 164 159 157 190 225 241 262 273 290 287 314 30 31 27 27 19 10 356 348 348 347 338 343 332 335 342 334 328 328 326 322 324 317
128 114 207 211 171 158 147 135 134 144 153 147 151 166 190 212 226 235 222 261 4 41 31 12 4 11 23 359 353 358 354 348 352 355 355 347 334 328 326 323 322 322 321
164 158 200 227 179 141 138 139 138 154 147 132 117 99 11 297 300 77 65 49 44 42 42 357 343 23 34 10 8 357 353 3 14 7 352 339 329 323 316 315 320 323 330
179 172 186 177 136 118 130 158 161 160 136 128 147 163 210 260 326 55 62 58 52 49 51 14 358 29 35 13 0 353 10 21 13 359 342 329 323 321 319 321 325 326 334
211 170 156 139 129 136 208 183 157 156 127 107 118 144 160 125 52 63 62 69 72 64 46 33 22 41 34 13 4 33 31 15 350 335 326 322 323 319 317 322 325 331 341
211 180 166 158 168 186 187 163 165 172 138 114 93 78 104 126 101 87 62 72 68 71 64 50 42 41 36 26 31 57 47 7 336 323 324 315 311 310 319 325 326 337 345
220 191 182 179 183 179 168 178 182 183 175 155 153 118 103 130 131 126 116 109 144 117 91 90 72 51 34 44 53 53 31 352 333 323 311 302 305 311 323 328 330 333 344
209 194 201 190 172 165 178 195 192 196 205 197 172 158 206 233 127 110 117 102 8 124 128 119 108 91 71 74 74 64 18 343 331 319 304 294 297 310 329 326 334 341 347